STARLINK-34579

Last updated on Tue Aug 26 2025 00:02:05 GMT+0000 (Coordinated Universal Time)

1 64925U 25157X 25237.58336806 -.00000501 00000+0 -25422-5 0 9991 2 64925 53.1611 187.7487 0001436 94.2781 187.4083 15.39605143 6039
UTC large
Height (km)
Speed (km/s)
/
Latitude / Longitude
Inclination (degrees)
Orbital Period (minutes)
Azimuth
Elevation
Range (km)
Doppler Factor

Next 0 passes for location: London (51.5072 / 0.1276)

Sorry there are no passes over London.